Regional Weather Roundup
Issued by NWS Northern Indiana

Home | Current Version | Previous Version | Text Only | Print | Product List | Glossary Off
Versions: 1 2 3 4 5 6 7 8 9 10 11 12 13 14 15 16 17 18 19 20 21 22 23 24 25 26 27 28 29 30 31 32 33 34 35 36 37 38 39 40 41 42 43 44 45 46 47 48 49 50

000
ASUS43 KIWX 241400
RWRIWX

KIWX WEATHER ROUNDUP
NATIONAL WEATHER SERVICE NORTHERN INDIANA
900 AM EST MON NOV 24 2014

NOTE: "FAIR" INDICATES FEW OR NO CLOUDS BELOW 12,000 FEET WITH NO
SIGNIFICANT WEATHER AND/OR OBSTRUCTIONS TO VISIBILITY.

* THESE STATIONS ARE NOT UNDER NWS QUALITY CONTROL. THEY ALSO MAY NOT
  REPORT WEATHER SUCH AS PRECIPITATION OR FOG.

INZ001>027-241500-
NORTHERN INDIANA

CITY           SKY/WX    TMP DP  RH WIND       PRES   REMARKS
GARY*          RAIN      50  50 100 SW13      29.10R
SOUTH BEND     LGT RAIN  51  51 100 W7        29.08F VSB 1
GOSHEN         CLOUDY    67  52  58 SW13      29.08F
ANGOLA*        CLOUDY    54  45  71 SW15      29.10F
FORT WAYNE     LGT RAIN  55  53  93 S16       29.15S

$$
INZ028>050-241500-
CENTRAL INDIANA

CITY           SKY/WX    TMP DP  RH WIND       PRES   REMARKS
LAFAYETTE      LGT RAIN  42  40  92 SW22G33   29.24R
KOKOMO*        CLOUDY    55  50  82 SW30G40   29.17R
MUNCIE*        CLOUDY    56  50  80 SW16G28   29.20R
INDIANAPOLIS   CLOUDY    46  43  89 W26G39    29.28R

$$
MIZ043>046-050>051-056>058-064>065-071>073-077>080-241500-
SOUTHWEST LOWER MICHIGAN

CITY           SKY/WX    TMP DP  RH WIND       PRES   REMARKS
BATTLE CREEK   LGT RAIN  53  50  89 SW9       29.09S FOG
BENTON HARBOR  LGT RAIN  49  49 100 SW8       29.07F FOG
COLDWATER*     LGT RAIN  55  53  94 SW10G16   29.09F
HILLSDALE*     CLOUDY    54  54  99 S9        29.11S
HOLLAND        LGT RAIN  50  48  93 SW9       29.07S FOG
GRAND RAPIDS   CLOUDY    49  49 100 SW13      29.07S FOG
KALAMAZOO      LGT RAIN  52  49  89 S7        29.09S
STURGIS*       HVY RAIN  54  52  94 SW12G23   29.08F
THREE RIVERS*  LGT RAIN  52  51  97 SW6       29.09S

$$
OHZ001>008-015>018-024>025-241500-
NORTHWEST OHIO

CITY           SKY/WX    TMP DP  RH WIND       PRES   REMARKS
DEFIANCE       LGT RAIN  57  53  86 S10       29.14F
FINDLAY        TSTM      60  54  80 S25G33    29.19F
TOLEDO EXPRESS CLOUDY    56  52  86 S12G22    29.15F
TOLEDO METCALF CLOUDY    59  52  77 S24G32    29.18F
LIMA           TSTM      52  50  93 SW23G56   29.24R VSB 1/2

$$
AND FOR LAKE MICHIGAN COASTAL AND OPEN LAKE BUOY OBSERVATIONS

STATION/POSITION TEMP    WIND        PRES    VSBY  WAVE
                 AIR SEA DIR/SP/G                  HT/PER
                 (F)     (DEG/KT/KT) (MB)    (MI)  (FT/S)
CALUMET HARBOR    48     220/  5/  8  984.1S
MICHIGAN CITY     49     190/  8/  9   N/A
SAINT JOSEPH      50     180/  6/ 12  986.1R
SOUTH LAKE BUOY   45 42  210/ 10/ 12  984.3R         1

$$
&&


USA.gov is the U.S. government's official web portal to all federal, state and local government web resources and services.